Regional Weather Roundup
Issued by NWS Green Bay, WI

Home | Current Version | Previous Version | Text Only | Print | Product List | Glossary On
Versions: 1 2 3 4 5 6 7 8 9 10 11 12 13 14 15 16 17 18 19 20 21 22 23 24 25 26 27 28 29 30 31 32 33 34 35 36 37 38 39 40 41 42 43 44 45 46 47 48 49 50
000
ASUS43 KGRB 251510
RWRGRB

NORTH-CENTRAL AND NORTHEAST WISCONSIN REGIONAL WEATHER ROUNDUP
NATIONAL WEATHER SERVICE GREEN BAY WI
1000 AM CDT FRI JUL 25 2014

WIZ005-009-010>012-018-019-251600-
NORTH CENTRAL WISCONSIN

CITY           SKY/WX    TMP DP  RH WIND       PRES   REMARKS
IRONWOOD       CLOUDY    66  63  88 S6        29.82F
MANITOWISH WTR CLOUDY    63  60  88 S9        29.88S
ARBOR VITAE    CLOUDY    64  59  83 SW10      29.89R
EAGLE RIVER    CLOUDY    63  61  92 S5        29.89F
LAND O LAKES   LGT RAIN  65  59  82 S5        29.90F
RHINELANDER    CLOUDY    63  58  83 S9        29.89F
PHILLIPS       CLOUDY    65  59  81 S15       29.87F
ANTIGO         CLOUDY    62  59  87 S8        29.91F
TOMAHAWK       CLOUDY    63  59  87 CALM      29.91S
MERRILL        CLOUDY    64  59  86 SW8       29.92R
$$

WIZ013-073-251600-
NORTHEAST WISCONSIN

CITY           SKY/WX    TMP DP  RH WIND       PRES   REMARKS
IRON MOUNTAIN  PTSUNNY   72  58  61 SW13      29.89F
MARINETTE      PTSUNNY   68  57  68 W6        29.91F
OCONTO         PTSUNNY   69  58  69 SW8       29.92F
$$

WIZ017-030-035>037-045-251600-
CENTRAL WISCONSIN

CITY           SKY/WX    TMP DP  RH WIND       PRES   REMARKS
MEDFORD        CLOUDY    62  58  86 S9        29.90S
WAUSAU         CLOUDY    64  59  83 S8        29.90F
MOSINEE        PTSUNNY   64  61  88 S10       29.92F
MARSHFIELD     LGT RAIN  63  59  87 SW9       29.92R
WISC RAPIDS    CLOUDY    66  58  75 S10       29.94R
STEVENS POINT  CLOUDY    65  56  72 SW12G21   29.93R
WAUPACA        CLOUDY    69  58  67 S8        29.90F
SHAWANO        CLOUDY    66  59  78 CALM      29.92F
CLINTONVILLE   CLOUDY    64  57  77 S7        29.91F
$$

WIZ038-039-048-051-251600-
FOX VALLEY

CITY           SKY/WX    TMP DP  RH WIND       PRES   REMARKS
NWS GREEN BAY  CLOUDY    68  57  68 S10       29.93F
APPLETON       NOT AVBL
OSHKOSH        PTSUNNY   68  57  68 S14       29.92F
FOND DU LAC    PTSUNNY   67  55  65 S13       29.94F
$$

WIZ022-050-052-251600-
EAST CENTRAL WISCONSIN

CITY           SKY/WX    TMP DP  RH WIND       PRES   REMARKS
STURGEON BAY   PTSUNNY   72  55  56 SW14      29.94F
MANITOWOC      CLOUDY    69  55  60 W8        29.96F
SHEBOYGAN      CLOUDY    67  55  65 SW13      29.97F
$$

LMZ563-521-522-541>543-251600-
LAKESHORE

STATION/POSITION TIME  TEMP    WIND        PRES    VSBY  WAVE
                       AIR SEA DIR/SP/G                  HT/PER
                 (UTC) (F)     (DEG/KT/KT) (MB)    (MI)  (FT/S)
SHEBOYGAN LKSHOR 1500   63     170/ 13/ 14 1014.8F
KEWAUNEE LKSHORE 1500   71     230/  8/ 13 1015.0F
NORTHPORT PIER   1500   70     220/  7/ 14 1013.5S
N MID LAKE BUOY  1500   58 55  200/ 10/ 12 1013.3F         2/ 4
CHAMBERS ISLAND  1500   68     170/  4/  9 1013.5F
MENOMINEE LKSHOR 1500   68     220/ 11/ 15 1014.1F
$$



USA.gov is the U.S. government's official web portal to all federal, state and local government web resources and services.